Location: Ciernes-Picat
(46.5053°N, 7.1703°E)
Time: 11:51:46
(UTC+00:00)

Daily predictions for brighter satellites

Satellite Brightness Start Highest point End
(mag) Time Altitude Azimuth Time Altitude Azimuth Time Altitude Azimuth
BREEZE-M DEB (TANK) 3.3 19:26:53 10° SSW 19:29:57 45° SE 19:38:49 10° ENE
Cosmos 1076 Rocket 3.5 19:31:28 10° S 19:35:46 68° E 19:40:08 10° NNE
Resurs 01 Rocket 2.1 19:32:37 10° SE 19:36:51 46° ENE 19:41:08 10° N
Cosmos 1689 Rocket 3.0 19:34:39 10° N 19:37:20 48° WNW 19:39:58 10° SSW
SL-16 R/B 2.7 19:35:12 10° NNW 19:40:41 47° ENE 19:46:09 10° SE
ATLAS 5 CENTAUR R/B 4.3 19:40:34 10° NNW 19:43:48 16° NNE 19:47:21 10° ENE
Terra 3.9 19:41:58 10° E 19:43:59 13° ENE 19:46:00 10° NNE
RESURS DK-1 3.8 19:40:46 10° SW 19:44:43 43° WNW 19:48:43 10° NNE
Meteor 2-3 Rocket 4.1 19:41:16 10° SSE 19:46:37 45° E 19:52:03 10° NNE
Cosmos 332 Rocket 3.9 19:42:34 10° NNW 19:47:29 73° ENE 19:52:23 10° SSE
SPOT 3 Rocket 3.9 19:42:36 10° SE 19:47:38 51° ENE 19:52:41 10° N
Cosmos 1933 3.6 19:48:41 10° N 19:52:39 51° ENE 19:56:34 10° SSE
Cosmos 1271 Rocket 3.2 19:50:02 10° N 19:53:53 45° ENE 19:57:44 10° SSE
Gbstr 26 Del rocket 2.6 19:50:52 10° WNW 19:54:35 81° SSW 19:58:12 12° ESE
Cosmos 1538 Rocket 4.1 19:50:30 10° SSW 19:55:42 81° WNW 20:00:55 10° NNE
IRS-1A Rocket 4.5 19:50:32 10° S 19:56:02 74° WSW 20:01:34 10° NNW
OBJECT-B 3.2 19:54:25 10° SSW 19:56:59 22° W 19:59:35 10° NW
SPOT 5 4.2 19:57:34 10° ESE 20:00:45 21° ENE 20:04:03 10° NNE
IGS 5A 3.4 19:56:54 10° SSE 20:01:01 82° ENE 20:05:12 10° N
Cosmos 2098 Rocket 3.0 19:57:52 10° SSW 20:01:05 64° W 20:05:02 10° N
ARIANE 5 R/B 3.9 19:58:58 11° ESE 20:02:21 26° ENE 20:06:01 10° N
Meteor 2-19 Rocket 4.4 19:56:27 10° S 20:02:27 70° E 20:08:29 10° NNE
Ariane Rocket 3.4 20:01:41 10° S 20:06:42 63° WSW 20:11:45 10° NNW
Landsat 7 3.8 20:03:25 10° SSE 20:08:11 85° ENE 20:12:58 10° NNW
Cosmos 1782 3.2 20:04:42 10° N 20:08:35 45° ENE 20:11:43 14° SSE
Cosmos 2082 Rocket 3.8 20:07:20 10° WSW 20:12:37 40° NW 20:17:57 10° NNE
Cosmos 304 Rocket 4.0 20:08:14 10° NNW 20:13:02 72° WSW 20:17:46 10° SSE
Cosmos 220 Rocket 4.5 20:11:13 10° NNW 20:15:27 48° ENE 20:18:36 17° SE
ATLAS 3B R/B 3.7 20:12:58 10° NW 20:19:39 44° WSW 20:26:33 10° S
Cosmos 2360 Rocket 2.8 20:14:21 10° NNW 20:19:45 44° NE 20:23:55 16° ESE
ATLAS 2AS CENTAUR R/B 4.5 20:14:23 10° WSW 20:21:46 41° NW 20:28:55 10° NNE
MetOp-B 4.1 20:18:48 11° SSE 20:24:01 88° ENE 20:29:25 10° NNW
Cosmos 1092 Rocket 4.0 20:19:56 10° S 20:26:14 89° E 20:32:36 10° N
ISS -1.5 20:28:12 10° W 20:30:23 16° SW 20:32:13 11° S
Cosmos 2151 3.8 20:27:01 10° SSW 20:31:10 52° WNW 20:35:21 10° N
NOSS 2-1 (C) 3.1 20:28:04 10° SSW 20:31:16 44° ESE 20:34:26 10° NE
ERS-2 3.5 20:30:55 10° N 20:34:21 40° WNW 20:37:46 10° SW
Cosmos 2026 Rocket 4.0 20:28:54 10° S 20:35:14 85° E 20:41:31 10° N
Cosmos 2084 3.2 20:32:45 10° SSW 20:36:47 69° SE 20:40:56 10° NE
COSMOS 2455 3.9 20:34:51 19° SE 20:37:18 25° ESE 20:42:04 10° NE
Cosmos 1812 3.0 20:34:54 10° N 20:38:40 49° ENE 20:40:31 26° SE
NOSS 2-1 (D) 2.8 20:35:44 10° SSW 20:39:00 55° SE 20:42:16 10° NE
GP-B 3.0 20:35:58 10° N 20:40:27 82° E 20:44:01 16° S
Cosmos 1980 Rocket 4.4 20:36:46 10° WNW 20:40:37 19° W 20:44:27 10° SW
Cosmos 2333 Rocket 3.2 20:35:39 10° NNW 20:40:46 34° NE 20:44:24 17° ESE
Cosmos 923 Rocket 4.3 20:36:31 10° SSW 20:41:51 74° WNW 20:47:14 10° NNE
BREEZE-M DEB (TANK) 4.2 20:39:11 10° WNW 20:42:48 54° SSW 20:49:45 19° SE
SPOT 1/Viking Rocket 3.7 20:38:26 14° S 20:43:00 72° WSW 20:48:14 10° NNW
ERS-1 Rocket 3.2 20:40:25 22° SE 20:43:32 55° ENE 20:48:26 10° N
USA 245 3.6 20:42:07 17° S 20:45:46 79° WSW 20:49:40 10° NNW
SL-27 R/B 2.7 20:44:42 27° SSE 20:46:18 47° ESE 20:49:47 10° NNE
Okean 3 Rocket 3.5 20:48:05 14° S 20:51:54 86° E 20:56:28 10° N
USA 276 3.7 20:50:07 10° W 20:52:37 22° SW 20:53:10 21° SSW
Cosmos 1408 Rocket 3.9 20:50:55 28° SSE 20:52:49 46° E 20:56:58 10° NNE
Cosmos 2237 Rocket 4.4 20:49:46 10° N 20:52:57 15° NE 20:56:08 10° ENE
Cosmos 2056 Rocket 3.5 20:47:47 10° NNW 20:53:11 83° ENE 20:56:16 25° SSE
Meteor 2-14 Rocket 4.4 20:48:52 15° S 20:53:59 67° E 21:00:06 10° NNE
Cosmos 2322 Rocket 2.4 20:48:34 10° NNW 20:54:10 66° WSW 20:57:55 21° S
CARTOSAT-1 3.7 20:59:31 24° S 21:02:04 70° WSW 21:06:25 10° NNW
Meteor 1-10 Rocket 4.2 20:58:52 10° N 21:04:24 66° ENE 21:07:16 29° SSE
USA 234 4.5 20:58:42 10° ENE 21:04:38 38° N 21:10:35 10° NW
Spot 2 Rocket 3.7 21:03:04 21° S 21:06:27 68° WSW 21:11:34 10° NNW
Cosmos 2219 Rocket 2.8 21:06:21 10° NNW 21:11:44 45° ENE 21:14:26 27° ESE
Resurs 01 Rocket 3.9 21:10:20 10° SW 21:13:35 20° W 21:16:51 10° NW
Cosmos 1371 Rocket 4.4 21:09:39 10° NNW 21:14:57 60° WSW 21:17:55 26° S
BREEZE M DEB (TANK) 4.0 21:11:22 10° SW 21:15:21 63° SSE 21:40:21 10° ENE
Cosmos 1680 Rocket 4.4 21:10:47 10° SW 21:15:55 51° WNW 21:21:03 10° NNE
Cosmos 1151 Rocket 4.2 21:14:56 10° NNW 21:19:01 40° W 21:21:48 18° SSW
Cosmos 1515 Rocket 3.5 21:14:33 10° N 21:19:01 87° E 21:20:37 39° S
Terra 1.7 21:19:00 36° SSE 21:20:58 85° ENE 21:25:46 10° NNW
Cosmos 1553 Rocket 4.2 21:16:22 10° NNW 21:22:24 67° W 21:26:23 22° S
Cosmos 2266 Rocket 4.0 21:19:57 29° SSE 21:23:06 63° E 21:29:17 10° NNE
Cosmos 2285 Rocket 4.4 21:17:11 10° NNW 21:23:20 51° ENE 21:26:17 29° ESE
SL-16 R/B 3.6 21:19:42 10° NW 21:24:34 30° WSW 21:28:20 15° SSW
Cosmos 2315 Rocket 4.3 21:22:04 10° N 21:28:16 54° ENE 21:30:56 33° SE
ATLAS 5 CENTAUR R/B 2.9 21:24:24 10° NNW 21:29:38 47° NE 21:33:05 24° ESE
Cosmos 2333 4.1 21:25:25 10° NNW 21:31:03 86° ENE 21:33:17 38° SSE
Cosmos 2228 Rocket 3.4 21:30:07 10° N 21:34:27 51° ENE 21:35:16 44° ESE
NOSS 2-1 (E) 4.2 21:34:10 10° WSW 21:37:16 40° NW 21:40:35 10° NNE
SPOT 5 3.4 21:36:48 29° SSW 21:38:32 44° W 21:42:47 10° NNW
ARIANE 5 R/B 3.8 21:36:31 23° SSW 21:38:39 36° W 21:42:47 10° NNW
COSMOS 2428 2.9 21:33:43 10° NNW 21:39:23 60° ENE 21:41:31 37° ESE
Cosmos 1862 4.4 21:39:48 21° SW 21:42:00 40° WNW 21:45:47 10° N
Cosmos 883 Rocket 4.4 21:36:54 10° N 21:43:10 80° E 21:45:47 38° SSE
NOSS 3-1 (C) 4.1 21:37:32 10° NW 21:45:04 80° SW 21:49:24 33° SSE
Cosmos 292 Rocket 4.2 21:41:05 10° NNW 21:45:45 54° WSW 21:47:10 39° SSW
IRIDIUM 106 4.3 21:41:54 10° N 21:47:07 66° E 21:48:29 47° SE
Cosmos 1048 Rocket 4.0 21:48:39 49° SSE 21:49:34 57° ESE 21:54:35 10° NNE
S3M 4.4 21:48:15 10° NNW 21:54:31 58° W 21:57:51 28° SSW
Cosmos 1655 Rocket 4.3 21:54:13 24° SSW 21:58:12 67° W 22:04:37 10° N
COSMOS 2487 2.7 22:00:10 63° NNW 22:00:10 63° NNW 22:03:10 10° NNE
ALOS 2 4.0 21:59:23 24° E 22:00:02 25° ENE 22:03:39 10° N
USA 229 DEB 3.9 21:53:39 10° NW 22:01:00 86° NE 22:04:27 37° SE
USA 229 3.9 21:53:44 10° NW 22:01:06 86° NE 22:04:33 37° SE
Cosmos 972 Rocket 3.9 21:59:17 41° SSW 22:01:09 89° WNW 22:06:10 10° NNE
Cosmos 1805 Rocket 3.4 22:02:11 69° SSE 22:02:38 78° E 22:07:04 10° NNE
Cosmos 2360 Rocket 3.4 21:58:39 10° NW 22:03:35 32° WSW 22:05:41 25° SW
Cosmos 2084 Rocket 4.3 22:04:27 10° NNW 22:08:28 43° NE 22:09:18 38° ENE
USA 267 3.3 22:06:25 10° ENE 22:12:49 53° SE 22:14:48 40° S
Cosmos 1500 Rocket 4.4 22:11:54 34° SW 22:13:17 46° WNW 22:17:36 10° N
Cosmos 1980 4.3 22:10:15 10° NNW 22:15:44 47° ENE 22:17:31 36° ESE
NOSS 0 Rocket 4.0 22:10:42 10° NNW 22:16:56 69° ENE 22:18:54 45° SE
NOSS 3-1 (A) 4.1 22:14:00 10° NW 22:21:32 78° SW 22:25:00 41° SSE
COSMOS 2455 3.2 22:17:53 16° SW 22:22:46 65° NW 22:28:46 10° NNE
Meteor 1-27 Rocket 4.4 22:18:28 10° NNW 22:23:52 46° W 22:25:47 34° SW
Lacrosse 5 2.9 22:25:50 31° E 22:25:50 31° E 22:28:53 10° ENE
Meteor 1-20 Rocket 4.1 22:23:03 53° S 22:24:29 90° W 22:30:14 10° N
Cosmos 2333 Rocket 2.8 22:19:50 10° NW 22:25:10 44° WSW 22:26:23 38° SW
Nadezhda 2 Rocket 4.5 22:23:24 49° SSE 22:25:13 77° E 22:31:39 10° NNE
Cosmos 1452 Rocket 4.0 22:20:16 10° NNW 22:25:19 48° WSW 22:26:16 42° SW
COBE Rocket 3.6 22:26:51 73° SSW 22:27:15 82° WSW 22:32:00 10° NNW
Cosmos 972 4.5 22:28:19 59° S 22:29:24 84° ESE 22:34:34 10° NNE
BREEZE-M R/B 3.3 22:27:10 10° WSW 22:31:56 42° ENE 22:35:10 10° ENE
Cosmos 2297 Rocket 2.8 22:32:07 38° ESE 22:32:07 38° ESE 22:37:09 10° NE
Cosmos 2322 4.4 22:26:56 10° NW 22:32:16 41° WSW 22:33:25 37° SW
Cosmos 1500 4.0 22:34:30 44° NE 22:34:30 44° NE 22:37:26 10° NNE
Sich 1 3.2 22:34:10 61° W 22:34:27 63° W 22:38:46 10° N
Cosmos 1244 Rocket 4.4 22:34:47 53° S 22:36:22 85° E 22:42:37 10° N
Cosmos 2237 Rocket 2.4 22:32:32 10° NNW 22:38:12 64° ENE 22:39:29 50° ESE
Cosmos 1470 Rocket 4.3 22:43:08 40° ENE 22:43:08 40° ENE 22:46:37 10° NNE
Cosmos 1633 Rocket 3.1 22:44:04 73° NE 22:44:04 73° NE 22:48:07 10° NNE
BREEZE-M DEB (TANK) 4.1 22:40:46 10° WNW 22:42:20 20° W 22:42:20 20° W
Cosmos 2227 Rocket 3.0 22:44:30 35° E 22:44:30 35° E 22:49:20 10° NE
USA 234 3.5 22:42:59 25° ESE 22:47:04 68° NNE 22:53:35 10° NW
Cosmos 1110 Rocket 4.2 22:42:26 10° NNW 22:47:40 59° WSW 22:48:10 56° SW
APEX 4.3 22:48:05 52° SSW 22:49:41 86° WNW 22:56:25 10° NNE
Cosmos 1331 Rocket 4.1 22:44:58 10° NNW 22:50:08 61° WSW 22:50:32 59° SW
Cosmos 1666 Rocket 3.6 22:50:45 74° WNW 22:50:45 74° WNW 22:55:11 10° N
Cosmos 1340 Rocket 4.3 22:54:24 27° ENE 22:54:24 27° ENE 22:56:49 10° NNE
Cosmos 2219 Rocket 3.2 22:50:39 10° NW 22:55:29 30° WSW 22:56:08 30° WSW
NOSS 2-2 (E) 4.4 22:53:28 10° NW 22:58:53 87° NE 23:00:50 50° SE
Terra 4.2 22:57:53 11° WSW 22:59:22 12° W 23:01:09 10° WNW
Spot 4 4.3 23:03:05 48° WSW 23:03:13 49° W 23:07:55 10° NNW
SL-16 R/B 3.1 23:02:18 10° NNW 23:07:40 41° NE 23:09:38 31° E
Meteor 1-18 Rocket 4.4 23:04:09 10° NNW 23:09:54 60° W 23:10:44 54° SW
ATLAS 5 CENTAUR R/B 2.9 23:09:00 10° NW 23:14:22 42° WSW 23:14:35 42° SW
Cosmos 1862 Rocket 4.0 23:10:16 10° NNW 23:14:06 53° WNW 23:14:06 53° WNW
COSMOS 2428 4.2 23:18:49 10° NW 23:23:11 23° WSW 23:23:31 23° WSW
NOSS 2-2 (C) 4.3 23:18:29 10° NW 23:23:51 79° SW 23:25:11 59° SSE
Intercosmos 25 Rocket 4.5 23:24:02 41° E 23:24:02 41° E 23:29:07 10° NNE
Meteor 2-4 Rocket 3.8 23:18:18 10° NNW 23:24:12 68° W 23:24:59 61° SW
Cosmos 1666 3.6 23:26:25 48° NNW 23:26:25 48° NNW 23:29:23 10° N
Meteor 1-11 Rocket 4.0 23:25:58 49° ESE 23:26:20 50° E 23:31:40 10° NNE
Cosmos 1703 Rocket 3.8 23:25:41 10° N 23:29:38 67° NNE 23:29:38 67° NNE
Cosmos 1709 Rocket 4.0 23:30:39 57° SSE 23:31:48 70° E 23:38:10 10° NNE
PSLV R/B 4.1 23:29:43 10° NNE 23:34:07 54° E 23:34:07 54° E
ALOS 2 3.7 23:36:46 35° W 23:36:46 35° W 23:40:17 10° NNW
Cosmos 1992 Rocket 3.9 23:31:01 10° NNW 23:36:16 76° ENE 23:36:41 71° ESE
Meteor 1-5 Rocket 4.3 23:35:45 59° SW 23:36:41 71° WNW 23:42:37 10° N
Cosmos 909 Rocket 4.2 23:36:15 56° S 23:37:44 76° ESE 23:45:29 10° NE
Cosmos 1745 Rocket 4.2 23:39:17 50° SW 23:40:41 64° W 23:46:58 10° N
Cosmos 2219 3.2 23:42:23 61° SW 23:43:21 77° WNW 23:49:09 10° NNE
CZ-2D R/B 4.3 23:41:27 10° NE 23:44:17 14° E 23:45:32 13° ESE
Cosmos 1066 Rocket 4.2 23:41:54 10° N 23:47:48 81° ENE 23:48:43 64° SSE
Meteor 1-13 Rocket 4.1 23:46:02 10° NNW 23:51:49 82° W 23:52:26 71° SSW
Timation 1 Rocket 4.2 23:51:21 65° SSW 23:52:19 89° WNW 23:58:21 10° NNE
